Index of /pub/ubuntu/dists

[ICO]NameLast modifiedSizeDescription

[PARENTDIR]Parent Directory  -  
[DIR]trusty/2015-10-07 07:44 -  
[DIR]xenial/2016-04-21 03:43 -  
[DIR]trusty-backports/2017-12-15 04:49 -  
[DIR]bionic/2018-04-26 19:38 -  
[DIR]focal/2020-04-23 13:34 -  
[DIR]trusty-security/2020-05-29 04:06 -  
[DIR]trusty-updates/2020-05-29 04:08 -  
[DIR]trusty-proposed/2020-06-06 02:57 -  
[DIR]hirsute/2021-04-22 12:34 -  
[DIR]impish/2021-10-14 12:35 -  
[DIR]hirsute-backports/2022-01-20 17:46 -  
[DIR]hirsute-security/2022-01-26 18:26 -  
[DIR]hirsute-updates/2022-01-26 18:26 -  
[DIR]jammy/2022-04-21 13:16 -  
[DIR]devel-backports/2022-05-02 17:10 -  
[DIR]kinetic-backports/2022-05-02 17:10 -  
[DIR]devel-security/2022-05-02 18:06 -  
[DIR]kinetic-security/2022-05-02 18:06 -  
[DIR]devel-updates/2022-05-02 18:06 -  
[DIR]kinetic-updates/2022-05-02 18:06 -  
[DIR]xenial-proposed/2022-06-21 05:47 -  
[DIR]jammy-security/2022-06-25 14:44 -  
[DIR]jammy-updates/2022-06-25 14:45 -  
[DIR]jammy-backports/2022-06-25 14:45 -  
[DIR]impish-security/2022-06-25 14:45 -  
[DIR]impish-updates/2022-06-25 14:45 -  
[DIR]impish-backports/2022-06-25 14:45 -  
[DIR]focal-security/2022-06-25 14:46 -  
[DIR]focal-proposed/2022-06-25 14:48 -  
[DIR]focal-backports/2022-06-25 14:48 -  
[DIR]bionic-security/2022-06-25 14:49 -  
[DIR]bionic-updates/2022-06-25 14:50 -  
[DIR]bionic-proposed/2022-06-25 14:50 -  
[DIR]bionic-backports/2022-06-25 14:51 -  
[DIR]xenial-security/2022-06-25 14:51 -  
[DIR]xenial-updates/2022-06-25 14:52 -  
[DIR]xenial-backports/2022-06-25 14:53 -  
[DIR]focal-updates/2022-06-25 15:16 -  
[DIR]devel/2022-06-25 15:37 -  
[DIR]kinetic/2022-06-25 15:37 -  
[DIR]devel-proposed/2022-06-25 15:37 -  
[DIR]kinetic-proposed/2022-06-25 15:37 -  
[DIR]jammy-proposed/2022-06-25 15:37 -  
[DIR]impish-proposed/2022-06-25 15:37 -  
[DIR]hirsute-proposed/2022-06-25 15:37 -